Alexandria Esle, LA

11:32 PM CDT on August 20, 2019 (GMT -0500)
Alexandria Esler Regional

Weather History for KESF - July, 2019

Change the Weather History Date:

Sunday, July 21, 2019

  Actual Average Record
Temperature  
Mean Temperature 80 °F -  
Max Temperature 89 °F 91 °F 100 °F (2008)
Min Temperature 72 °F 71 °F 65 °F (1970)
Cooling Degree Days 15    
Growing Degree Days 30 (Base 50)    
Moisture  
Dew Point 74 °F    
Average Humidity 89    
Maximum Humidity 100    
Minimum Humidity 67    
Precipitation  
Precipitation 0.00 in - - ()
Sea Level Pressure  
Sea Level Pressure 29.99 in    
Wind  
Wind Speed 1 mph (SSE)    
Max Wind Speed 9 mph    
Max Gust Speed -    
Visibility 10 miles    
Events Thunderstorm    
Averages and records for this station are not official NWS values.
T = Trace of Precipitation, MM = Missing Value Source: NWS Daily Summary

Daily Weather History Graph

Daily Weather History Graph

Search for Another Location

Airport or City:

Astronomy

Jul. 21, 2019 Rise Set
Actual Time 6:18 AM CDT 8:12 PM CDT
Civil Twilight 5:51 AM CDT 8:39 PM CDT
Nautical Twilight 5:18 AM CDT 9:11 PM CDT
Astronomical Twilight 4:43 AM CDT 9:46 PM CDT
Moon 11:22 PM CDT 10:26 AM CDT
Length of Visible Light 14h 47m
Length of Day
13h 53m
Waning Gibbous, 80% of the Moon is Illuminated
Jul 21
Waning Gibbous
Jul 24
Last Quarter
Jul 31
New
Aug 7
First Quarter
Aug 15
Full

Hourly Weather History & Observations

Time (CDT) Temp. Heat Index Dew Point Humidity Pressure Visibility Wind Dir Wind Speed Gust Speed Precip Events Conditions
12:53 AM 73.9 °F - 72.0 °F 93% 29.98 in 10.0 mi Calm Calm - N/A   Partly Cloudy
1:21 AM 73.9 °F - 72.0 °F 93% 29.99 in 10.0 mi Calm Calm - N/A   Mostly Cloudy
1:53 AM 73.9 °F - 72.0 °F 93% 29.99 in 10.0 mi Calm Calm - N/A   Partly Cloudy
2:53 AM 73.9 °F - 72.0 °F 93% 29.99 in 10.0 mi Calm Calm - N/A   Mostly Cloudy
3:20 AM 73.9 °F - 72.0 °F 93% 29.98 in 10.0 mi Calm Calm - N/A   Scattered Clouds
3:41 AM 73.0 °F - 72.0 °F 96% 29.99 in 10.0 mi Calm Calm - N/A   Mostly Cloudy
3:53 AM 73.9 °F - 73.0 °F 97% 29.98 in 10.0 mi Calm Calm - N/A   Overcast
4:46 AM 75.0 °F - 73.9 °F 96% 29.99 in 9.0 mi Calm Calm - N/A   Overcast
4:53 AM 75.0 °F - 73.0 °F 94% 29.98 in 9.0 mi Calm Calm - N/A   Overcast
5:53 AM 75.0 °F - 73.9 °F 96% 29.99 in 8.0 mi Calm Calm - N/A   Overcast
6:53 AM 75.9 °F - 73.9 °F 94% 30.00 in 6.0 mi Calm Calm - N/A   Overcast
7:53 AM 77.0 °F - 75.0 °F 94% 30.00 in 6.0 mi Calm Calm - N/A   Overcast
8:32 AM 79.0 °F - 75.9 °F 90% 30.02 in 10.0 mi Calm Calm - N/A   Scattered Clouds
8:53 AM 80.1 °F 85.4 °F 75.9 °F 87% 30.02 in 10.0 mi Calm Calm - N/A   Clear
9:53 AM 82.9 °F 91.8 °F 77.0 °F 82% 30.02 in 10.0 mi Variable 3.5 mph - N/A   Scattered Clouds
10:41 AM 84.9 °F 95.3 °F 77.0 °F 77% 30.02 in 10.0 mi Variable 3.5 mph - N/A   Mostly Cloudy
10:53 AM 86.0 °F 98.3 °F 78.1 °F 77% 30.01 in 10.0 mi SSW 3.5 mph - N/A   Mostly Cloudy
11:53 AM 87.1 °F 96.3 °F 75.0 °F 67% 30.00 in 10.0 mi SW 5.8 mph - N/A   Mostly Cloudy
12:53 PM 87.1 °F 96.3 °F 75.0 °F 67% 29.99 in 10.0 mi Calm Calm - N/A   Partly Cloudy
1:13 PM 84.0 °F 93.7 °F 77.0 °F 79% 29.99 in 10.0 mi Calm Calm - N/A Thunderstorm Partly Cloudy
1:41 PM 81.0 °F 87.3 °F 75.9 °F 85% 29.98 in 10.0 mi SE 6.9 mph - N/A   Mostly Cloudy
1:53 PM 81.0 °F 87.3 °F 75.9 °F 85% 29.98 in 10.0 mi NE 3.5 mph - N/A   Mostly Cloudy
2:53 PM 80.1 °F 85.1 °F 75.0 °F 85% 29.98 in 10.0 mi SE 8.1 mph - 0.00 in   Mostly Cloudy
3:53 PM 80.1 °F 84.5 °F 73.9 °F 81% 29.97 in 10.0 mi South 9.2 mph - N/A   Clear
4:53 PM 79.0 °F - 72.0 °F 79% 29.99 in 10.0 mi SSE 8.1 mph - N/A   Clear
5:53 PM 77.0 °F - 73.0 °F 88% 29.99 in 10.0 mi SSE 6.9 mph - N/A   Clear
6:53 PM 77.0 °F - 73.0 °F 88% 29.97 in 10.0 mi SSE 4.6 mph - N/A   Partly Cloudy
7:53 PM 77.0 °F - 73.0 °F 88% 29.96 in 10.0 mi Calm Calm - N/A   Clear
8:53 PM 73.9 °F - 73.0 °F 97% 29.95 in 10.0 mi SE 3.5 mph - N/A   Clear
9:53 PM 73.9 °F - 72.0 °F 93% 29.97 in 9.0 mi ESE 3.5 mph - N/A   Clear
10:17 PM 73.0 °F - 72.0 °F 96% 29.98 in 10.0 mi Calm Calm - N/A   Mostly Cloudy
10:53 PM 73.0 °F - 72.0 °F 96% 29.96 in 9.0 mi Calm Calm - N/A   Overcast
11:42 PM 73.0 °F - 72.0 °F 96% 29.96 in 8.0 mi Calm Calm - N/A   Scattered Clouds
11:53 PM 72.0 °F - 72.0 °F 100% 29.96 in 8.0 mi Calm Calm - N/A   Partly Cloudy